Location: Lecco
(45.8566°N, 9.3977°E)
Time: 02:38:50
(UTC+02:00)

Transit 4A - Pass Details

Date: 21 August 2020
Orbit: 863 x 982 km, 66.8° (Epoch: 23 September)

Event Time Altitude Azimuth Distance (km) Brightness Sun altitude
Rises 14:34:33 0° 328° (NNW) 3,643 10.8 53.0°
Reaches altitude 10° 14:37:53 10° 345° (NNW) 2,712 10.2 52.7°
Maximum altitude 14:42:25 20° 31° (NNE) 2,091 9.6 52.3°
Drops below altitude 10° 14:47:00 10° 77° (ENE) 2,735 10.2 51.8°
Sets 14:50:22 0° 94° (E) 3,683 10.8 51.5°
